www.pogodaiklimat.ru

Погода и климат >> Архив погоды >> Иран >> Остров Киш


ПОГОДА на Острове Киш

  • Прогноз погоды на Острове Киш
  • Монитор погоды на Острове Киш

АРХИВ ПОГОДЫ на Острове Киш

Время (UTC), дата Ветер
(напр.,м/с)
 
Видим.   Явления Облачность Т
(С)
Тd
(С)
f
(%)
Тe
(С)
Тes
(С)
Комфортность P
(гПа)
Po
(гПа)
Тmin
(С)
Tmax
(С)
R
(мм)
R24
(мм)
S
(см)
09 16.02 В 8 12 км {ливн. осадки} 6/4 1050 м
[Sc diur, vesp Ac trans]
+23.0 +13.4 55 +26 +27 жарко 1015.4 1011.9
12 16.02 В 5 10 км {ливн. осадки} 8/5 900 м
[Cb calv Ac trans]
+23.2 +13.6 55 +27 +27 душно 1014.2 1010.7 0.1
15 16.02 В 5 7000 м гроза без осадков 8/6 900 м
[Cb cap Ac trans]
+22.4 +14.2 60 +26 +26 жарко 1014.5 1011.0 +23.6
18 16.02 СВ 5 5000 м слаб. ливневой дождь, в посл. час гроза 9/6 900 м
[Cb cap Ac trans]
+19.6 +15.9 79 +21 +21 комфорт 1016.7 1013.2 1
21 16.02 В 4 7000 м в посл. час ливневой дождь {гроза} 6/6 900 м
[Cb calv Ac trans]
+19.2 +14.8 76 +21 +21 комфорт 1015.0 1011.5
00 17.02 В 4 6000 м дымка {гроза, ливн. осадки} 9/6 900 м
[Cb calv Ac trans]
+18.8 +15.4 81 +20 +20 1013.5 1010.0 2
03 17.02 В 2 5000 м дымка 9/6 900 м
[Cb calv Ac trans]
+17.8 +15.4 86 +18 +18 1014.3 1010.8 +17.4
06 17.02 штиль 0 8000 м дымка {ливн. осадки} 10/10 900 м
[Cb calv]
+20.2 +17.6 85 +23 +23 комфорт 1016.8 1013.3 0.7
09 17.02 З 4 8000 м мгла 9/3 900 м
[Cu hum Cs]
+23.0 +17.2 70 +28 +33 душно 1014.6 1011.1
12 17.02 СЗ 6 8000 м мгла 9/1 600 м
[Cu hum Ci sp]
+22.2 +16.3 69 +26 +28 душно 1012.8 1009.3
15 17.02 СЗ 9 12 км 1/0
[Ci fib]
+20.4 +8.1 45 +21 +21 комфорт 1013.3 1009.8 +23.4
18 17.02 СЗ 7 10 км 1/0
[Ci fib]
+18.4 +10.2 59 +18 +18 1014.0 1010.5
21 17.02 СЗ 5 8000 м мгла 1/1 900 м
[Cu hum]
+18.4 +12.3 68 +18 +18 1013.3 1009.8
00 18.02 СЗ 5 8000 м мгла ясно +17.8 +12.2 70 +17 +17 1012.5 1009.0
03 18.02 СЗ 6 10 км 1/0
[Ci fib]
+17.0 +7.9 55 +16 +16 1013.4 1009.9 +16.8
06 18.02 З 9 20 км 8/0
[Cc]
+19.6 +2.9 33 +19 +20 1014.8 1011.3
09 18.02 З 8 20 км 6/0
[Cc]
+21.6 +0.4 24 +21 +23 комфорт 1012.8 1009.3 666
12 18.02 З 8 20 км 4/0
[Cs]
+21.8 +6.6 37 +23 +23 комфорт 1009.7 1006.2
15 18.02 З 5 15 км 4/0
[Ci sp]
+20.0 +9.5 51 +21 +21 комфорт 1009.9 1006.4 +22.4 666
18 18.02 СЗ 4 15 км 4/0
[Ac trans Ci sp]
+19.0 +10.1 56 +20 +20 1010.7 1007.2
21 18.02 СЗ 3 15 км 4/0
[Ac trans Ci sp]
+18.4 +10.2 59 +19 +19 1010.2 1006.7
00 19.02 З 3 15 км 8/0
[Ac trans Ci sp]
+18.6 +8.1 50 +19 +19 1009.1 1005.6
03 19.02 штиль 0 15 км 10/4 1050 м
[Sc As trans]
+16.8 +9.6 62 +17 +17 1009.5 1006.0 +16.8 666
06 19.02 СЗ 3 15 км 10/4 900 м
[Cb calv As trans]
+20.4 +9.1 48 +22 +24 комфорт 1011.1 1007.6
09 19.02 СЗ 3 15 км 9/6 1050 м
[Sc diur, vesp Ac As]
+21.2 +5.0 35 +22 +24 комфорт 1010.6 1007.1
12 19.02 ЮЗ 3 15 км 8/8 900 м
[Cb calv Ac trans]
+22.0 +9.4 45 +24 +24 комфорт 1008.7 1005.2
15 19.02 З 2 15 км 8/8 900 м
[Cb calv]
+19.2 +10.3 56 +21 +21 комфорт 1010.2 1006.7 +22.6
18 19.02 З 4 12 км 1/1 1050 м
[Cu hum]
+18.6 +9.5 55 +19 +19 1012.2 1008.7
21 19.02 З 3 10 км 1/0
[Ci fib]
+18.4 +11.1 62 +19 +19 1012.7 1009.2
00 20.02 З 8 8000 м мгла ясно +17.8 +10.8 64 +17 +17 1012.9 1009.4
03 20.02 СЗ 7 12 км ясно +17.0 +7.0 52 +16 +16 1014.0 1010.5 +16.8
06 20.02 СЗ 7 20 км ясно +19.2 +2.2 32 +19 +21 1016.4 1012.9
09 20.02 З 8 20 км ясно +20.8 +3.0 31 +21 +23 комфорт 1016.2 1012.7
12 20.02 З 9 20 км ясно +21.4 +5.9 36 +22 +22 комфорт 1015.4 1011.9
15 20.02 СЗ 7 12 км ясно +19.2 +8.9 51 +19 +19 1016.4 1012.9 +22.0
18 20.02 СЗ 5 12 км ясно +18.4 +11.9 66 +18 +18 1017.7 1014.1
21 20.02 СЗ 3 12 км ясно +16.6 +12.2 75 +16 +16 1018.0 1014.4
00 21.02 СЗ 3 12 км ясно +16.2 +11.8 75 +16 +16 1018.0 1014.4
03 21.02 СЗ 2 10 км 3/3 600 м
[Cu hum]
+16.2 +12.2 77 +16 +16 1019.4 1015.8 +16.0
06 21.02 ЮВ 4 10 км 4/4 900 м
[Sc diur, vesp]
+21.2 +12.3 57 +23 +27 комфорт 1021.8 1018.2
09 21.02 ЮЗ 5 10 км 5/5 900 м
[Cu med, cong]
+22.0 +12.5 55 +25 +28 комфорт 1020.8 1017.3 666
12 21.02 Ю 4 10 км 4/4 900 м
[Cu med, cong]
+22.0 +11.2 50 +24 +26 комфорт 1019.4 1015.9
15 21.02 нст 1 10 км 5/0
[Cs]
+19.6 +14.4 72 +22 +22 комфорт 1020.0 1016.5 +22.6
18 21.02 штиль 0 10 км 1/0
[Ci fib]
+17.8 +12.8 73 +18 +18 1020.7 1017.1
21 21.02 штиль 0 10 км 5/3 900 м
[Sc Ci fib]
+17.0 +11.5 70 +17 +17 1019.9 1016.3
00 22.02 штиль 0 7000 м мгла 3/1 900 м
[Cu hum Ci fib]
+17.0 +11.1 68 +17 +17 1018.6 1015.0
03 22.02 штиль 0 10 км 10/1 600 м
[Cu hum Cs]
+17.6 +10.9 65 +18 +18 1019.1 1015.5 +16.4
06 22.02 штиль 0 10 км 10/1 900 м
[Cu hum As op]
+19.4 +13.4 68 +21 +23 комфорт 1020.8 1017.2
09 22.02 Ю 2 10 км 10/1 900 м
[Cu hum As op]
+20.4 +12.2 59 +23 +25 комфорт 1019.2 1015.6
12 22.02 ЮВ 2 8000 м мгла 9/4 1050 м
[Sc Ac As Ci fib]
+21.2 +11.9 55 +23 +25 комфорт 1017.0 1013.5
15 22.02 ЮВ 3 7000 м мгла 9/3 1050 м
[Sc diur, vesp Ac As]
+19.6 +11.6 60 +21 +21 комфорт 1017.8 1014.2 +21.4 666
18 22.02 штиль 0 7000 м мгла 6/3 1050 м
[Sc diur, vesp Ac trans]
+18.4 +12.3 68 +19 +19 1018.4 1014.8
21 22.02 штиль 0 7000 м мгла 9/5 900 м
[Cb calv Ac As]
+18.0 +12.6 71 +18 +18 1018.4 1014.8
00 23.02 штиль 0 7000 м мгла 6/3 1050 м
[Sc Ac trans]
+17.2 +12.5 74 +17 +17 1017.4 1013.9
03 23.02 В 2 6000 м мгла 1/1 1000 м
[Sc Ac trans]
+16.4 +12.4 77 +17 +17 1018.0 1014.4 +16.0 666
06 23.02 В 5 8000 м мгла 1/0
[Ci fib]
+21.4 +10.9 51 +23 +28 комфорт 1019.0 1015.4

 

Местоположение метеостанции Остров Киш (Иран): широта 26.50 долгота 53.98 высота над уровнем моря 30 м.

В архиве по умолчанию представлена погода на Острове Киш за последнюю неделю. Архивные данные за месяц целиком и за предыдущие месяцы, начиная с января 2011 года, Вы можете получить, выбрав интересующий диапазон дат из раскрывающегося списка и нажав кнопку "Ввод!".


*Определитесь, кто Вы:
робот инопланетянин человек

Внимание! Время в таблицах - всемирное. Для получения местного времени необходимо прибавить поправку, которая равна 3.5 ч.

Смотрите также архив погоды в соседних городах и на ближайших метеорологических станциях:

Погода в Бендер-Ленге (Иран) (85 км)
Погода на Острове Сирри (Иран) (87 км)
Погода на Острове Абу-Муса (Иран) (113 км)
Погода в Дубае (ОАЭ) (194 км)
Погода в Шардже (ОАЭ) (202 км)
Погода в Аль-Мактум аэропорту (ОАЭ) (214 км)
Погода в Рай-эль-Хайма аэропорту (ОАЭ) (218 км)
Погода в Эль-Хасаб аэропорту (Оман) (227 км)
Погода в Эль-Хасабе (Оман) (228 км)
Погода в Абу-Даби Батин аэропорту (ОАЭ) (235 км)

Пояснения к столбцам:

Ветер - указаны скорость ветра в м/с - средняя за 10 мин, порывы в срок и между сроками (в фигурных скобках) и направление, откуда дует ветер: С - северный, СВ - северо-восточный, В - восточный, ЮВ - юго-восточный, Ю - южный, ЮЗ - юго-западный, З - западный, СЗ - северо-западный.
Видимость - горизонтальная дальность видимости в метрах или километрах. При видимости от 1 до 10 км при отсутствии осадков обычно наблюдается дымка, при ухудшении видимости до 1 км и менее - туман. В сухую погоду видимость может ухудшаться дымом, пылью или мглою.
Явления - указаны атмосферные явления, наблюдавшиеся в срок или в последний час перед сроком; фигурными скобками обозначены явления, наблюдавшиеся между сроками (за 1-3 часа до срока); квадратными скобками обозначены град или гололедные отложения с указанием их диаметра в мм.
Облачность - указаны через наклонную черту общая и нижняя облачность в баллах и высота нижней границы облаков в метрах; квадратными скобками обозначены формы облаков: Ci - перистые, Cs - перисто-слоистые, Cc - перисто-кучевые, Ac - высококучевые, As - высокослоистые, Sc - слоисто-кучевые, Ns - слоисто-дождевые, Cu - кучевые, Cb - кучево-дождевые. Подробнее классификацию облаков см. в Атласе облаков (PDF).
T - Температура воздуха - температура, измеренная на высоте 2 м над землей.
Td - Температура точки росы - температура, при понижении до которой содержащийся в воздухе водяной пар достигнет насыщения.
f - Относительная влажность воздуха - влажноcть воздуха, измеренная на высоте 2 м над землей.
Te - Эффективная температура - температура, которую ощущает одетый по сезону человек в тени. Характеристика душности погоды. При расчете учитывается влияние влажности воздуха и скорости ветра на теплоощущения человека.
Tes - Эффективная температура на солнце - температура, которую ощущает человек, с поправкой на солнечный нагрев. Характеристика знойности погоды. Зависит от высоты солнца над горизонтом, облачности и скорости ветра. Ночью, в пасмурную погоду, а также при ветре 12 м/с и более поправка равна нулю.
P - Атмосферное давление - приведенное к уровню моря атмосферное давление.
Po - Атмосферное давление - измеренное на уровне метеостанции атмосферное давление.
Tmin - Минимальная температура - минимум температуры воздуха на высоте 2 м над землей.
Tmax - Максимальная температура - максимум температуры воздуха на высоте 2 м над землей.
R - Количество осадков - Количество выпавших осадков за период времени, мм. При наведении курсора мыши на число - период времени, за который выпало указанное количество осадков.
R24 - Количество осадков - Количество выпавших осадков за 24 часа, мм.
S - Снежный покров - Высота снежного покрова, см. При наведении курсора мыши на число - состояние снежного покрова и степень покрытия местности в баллах.